Regional Weather Roundup
Issued by NWS

Home | Current Version | Previous Version | Graphics & Text | Print | Product List | Glossary On
Versions: 1 2 3 4 5 6 7 8 9 10 11 12 13 14 15 16 17 18 19 20 21 22 23 24 25 26 27 28 29 30 31 32 33 34 35 36 37 38 39 40 41 42 43 44 45 46 47 48 49 50
000
ASUS43 KOAX 042202
RWRNE

WEATHER ROUNDUP FOR NEBRASKA
NATIONAL WEATHER SERVICE OMAHA NE
500 PM CDT WED MAY 04 2016

NOTES: SATELLITE DATA IS BEING USED TO AUGMENT CLOUD COVER ABOVE
       12000 FEET.
       "FAIR" INDICATES FEW OR NO CLOUDS BELOW 12,000 FEET WITH NO
       SIGNIFICANT WEATHER AND/OR OBSTRUCTIONS TO VISIBILITY.

  * THESE STATIONS DO NOT REPORT WEATHER SUCH AS RAIN...SNOW OR FOG.

NEZ001>004-019>022-054>056-042300-
NEBRASKA PANHANDLE

CITY           SKY/WX    TMP DP  RH WIND       PRES   REMARKS
SCOTTSBLUFF    SUNNY     76  38  25 SE6       30.10F
ALLIANCE       SUNNY     74  38  27 CALM      30.11F
CHADRON        SUNNY     78  40  25 E8        30.07F
KIMBALL        SUNNY     73  34  24 CALM      30.15F
SIDNEY         SUNNY     74  40  29 SE9       30.14F
$$

NEZ057>060-069>072-079>082-042300-
SOUTHWEST NEBRASKA

CITY           SKY/WX    TMP DP  RH WIND       PRES   REMARKS
NORTH PLATTE   SUNNY     76  36  23 NE13      30.08F
IMPERIAL       SUNNY     77  38  24 NE7       30.10F
MCCOOK         SUNNY     78  42  27 N9        30.07F
$$

NEZ005>010-023>029-035>040-094-042300-
NORTH CENTRAL NEBRASKA

CITY           SKY/WX    TMP DP  RH WIND       PRES   REMARKS
VALENTINE      SUNNY     74  35  24 N8        30.08F
AINSWORTH        N/A     70  34  26 NE3       30.09F HAZE
BROKEN BOW     SUNNY     72  46  39 N8        30.08F
ORD            SUNNY     70  35  27 N13       30.06F
$$

NEZ041-046>049-061>064-073>077-083>087-042300-
SOUTH CENTRAL NEBRASKA

CITY           SKY/WX    TMP DP  RH WIND       PRES   REMARKS
GRAND ISLAND   SUNNY     69  30  23 N13       30.07F
AURORA         SUNNY     70  29  21 NW13G22   30.06F
HASTINGS       SUNNY     70  32  24 N13       30.06F
KEARNEY *      SUNNY     72  32  23 N15       30.08F
YORK           SUNNY     68  32  26 N13       30.05F
$$

NEZ011>018-030>034-042>045-042300-
NORTHEAST NEBRASKA

CITY           SKY/WX    TMP DP  RH WIND       PRES   REMARKS
NORFOLK        SUNNY     68  34  28 NW8       30.04F
ALBION         SUNNY     67  31  25 N9G16     30.06F
BLAIR          SUNNY     67  39  35 N16       30.01F
COLUMBUS *     SUNNY     70  32  24 N10       30.05F
FREMONT        SUNNY     69  34  27 N10G17    30.03F
TEKAMAH        SUNNY     68  39  34 N9        30.01F
$$

NEZ050>053-065>068-078-088>093-042300-
SOUTHEAST NEBRASKA

CITY           SKY/WX    TMP DP  RH WIND       PRES   REMARKS
LINCOLN        SUNNY     72  33  24 N16G24    30.04F
OMAHA EPPLEY   MOSUNNY   69  38  32 N17       30.00F
BEATRICE       SUNNY     69  35  28 N15       30.03S
FALLS CITY     SUNNY     69  36  29 N14G25    29.99F
$$

NEZ044-045-051>053-067-042300-
OMAHA AREA

CITY           SKY/WX    TMP DP  RH WIND       PRES   REMARKS
OMAHA EPPLEY   MOSUNNY   69  38  32 N17       30.00F
BLAIR          SUNNY     67  39  35 N16       30.01F
FREMONT        SUNNY     69  34  27 N10G17    30.03F
$$



USA.gov is the U.S. government's official web portal to all federal, state and local government web resources and services.